Location: Newark
(39.0622°N, 106.5590°E)
Time: 20:24:22
(UTC+00:00)

Courier 1B - Pass Details

Date: 24 January 2020
Orbit: 962 x 1209 km, 28.3° (Epoch: 27 February)

Event Time Altitude Azimuth Distance (km) Brightness Sun altitude
Rises 18:19:44 0° 210° (SSW) 3,792 - -64.5°
Reaches altitude 10° 18:23:35 10° 189° (S) 2,892 - -64.0°
Maximum altitude 18:27:39 16° 154° (SSE) 2,520 - -63.4°
Drops below altitude 10° 18:31:51 10° 119° (ESE) 3,005 - -62.8°
Sets 18:35:57 0° 99° (E) 4,015 - -62.2°
